Terminal Aerodrome Forecast
Issued by NWS

Home | Current Version | Previous Version | Graphics & Text | Print | Product List | Glossary On
Versions: 1 2 3 4 5 6 7 8 9 10 11 12 13 14 15
109
FTUS41 KCLE 150545
TAFFDY
TAF
KFDY 150545Z 1506/1606 16006KT P6SM FEW250
     FM151000 16007KT P6SM OVC090
     FM151400 17010G20KT P6SM OVC090
     FM151700 20015G25KT P6SM -SHRA OVC080
     FM152100 21015G25KT 4SM -SHRA BR OVC007
     FM160000 24015G25KT P6SM OVC007
     FM160200 25015G25KT P6SM OVC015=

USA.gov is the U.S. government's official web portal to all federal, state and local government web resources and services.